Miscellaneous Local Product
Issued by NWS Hastings, NE

Home | Current Version | Previous Version | Text Only | Print | Product List | Glossary Off
Versions: 1 2 3 4 5 6 7 8 9 10 11 12 13 14 15 16 17 18 19 20 21 22 23 24 25 26 27 28 29 30 31 32 33 34 35 36 37 38 39 40 41 42 43 44 45 46 47 48 49 50

000
AXUS43 KGID 020202
MISGRI

GID CWA HOURLY WEATHER ROUNDUP
NATIONAL WEATHER SERVICE HASTINGS NE
900 PM CDT SAT AUG 01 2015

NOTE: "FAIR" INDICATES FEW OR NO CLOUDS BELOW 12,000 FEET WITH NO
SIGNIFICANT WEATHER AND/OR OBSTRUCTIONS TO VISIBILITY.

...SOUTH CENTRAL NEBRASKA...

CITY           SKY/WX    TMP DP  RH WIND       PRES   REMARKS
GRAND ISLAND   CLOUDY    74  69  85 SE3       29.92F
HASTINGS       MOCLDY    79  68  69 SE7       29.92S
KEARNEY        MOCLDY    75  64  69 S3        29.93S
ORD            MOCLDY    73  62  68 SE3       29.91S
YORK           CLOUDY    75  70  83 SE5       29.91F
AURORA         CLOUDY    74  72  92 SE3       29.92S
LEXINGTON      MOCLDY    77  65  65 S6        29.96R
HOLDREGE       PTCLDY    75  66  74 S6        29.94S
HEBRON         PTCLDY    77  68  75 SE3       29.91S

...NEBRASKA PANHANDLE...

CITY           SKY/WX    TMP DP  RH WIND       PRES   REMARKS
CHADRON        CLEAR     81  58  45 SE7       29.92R
ALLIANCE       CLEAR     73  62  68 S12       29.99R
SCOTTSBLUFF    CLEAR     76  56  49 SE13      30.00R
SIDNEY         MOCLDY    73  56  54 SE22G29   30.05S

...WESTERN AND NORTH CENTRAL NEBRASKA...

CITY           SKY/WX    TMP DP  RH WIND       PRES   REMARKS
VALENTINE      MOCLDY    73  61  65 SW8       29.93F
AINSWORTH      MOCLDY    75  62  62 SW6       29.95R
ONEILL         CLEAR     76  61  60 CALM      29.91S
BROKEN BOW     CLOUDY    74  62  66 CALM      29.95R
IMPERIAL       MOCLDY    81  54  39 N17       30.05R
NORTH PLATTE   CLOUDY    74  64  71 E3        29.96R
MCCOOK         PTCLDY    82  56  40 S9        29.96R

...EASTERN NEBRASKA...

CITY           SKY/WX    TMP DP  RH WIND       PRES   REMARKS
NORFOLK        CLEAR     72  64  76 S6        29.90S
SO SIOUX CITY  CLEAR     74  66  76 S3        29.88S
TEKAMAH        CLEAR     74  71  91 SE5       29.88F
COLUMBUS       PTCLDY    72  64  78 S3        29.90S
ALBION         CLEAR     73  62  70 SE3       29.91S
OMAHA EPPLEY   PTCLDY    79  71  76 S8        29.89S
MILLARD        CLEAR     78  72  80 SE3       29.89F
LINCOLN        MOCLDY    79  64  60 S6        29.90F
NEBRASKA CITY  CLEAR     78  67  69 SE5       29.91F
BEATRICE       MOCLDY    80  73  79 CALM      29.90F
FALLS CITY     PTCLDY    78  76  93 E6        29.90S

...NORTHERN KANSAS...

CITY           SKY/WX    TMP DP  RH WIND       PRES   REMARKS
GOODLAND       MOCLDY    77  56  48 S9        30.03R
HILL CITY      CLEAR     82  60  47 S8        29.96R
NORTON         CLEAR     81  54  39 S5        29.96R
PHILLIPSBURG   CLEAR     84  63  48 S7        29.93R
SMITH CENTER   CLEAR     81  63  54 SE7       29.92S
HAYS           CLEAR     82  59  44 S8        29.95S
RUSSELL        CLEAR     82  63  52 S10       29.93S
CONCORDIA      CLEAR     78  63  59 S10       29.92R
SALINA         CLEAR     83  67  58 S7        29.93R
TOPEKA         CLEAR     83  72  69 CALM      29.93R



USA.gov is the U.S. government's official web portal to all federal, state and local government web resources and services.